www.pogodaiklimat.ru

АРХИВ ПОГОДЫ в Омахе

Время (UTC), дата Ветер
(напр.,м/с)
 
Видим.   Явления Облачность Т
(С)
Тd
(С)
f
(%)
Тe
(С)
Тes
(С)
Комфортность

P
(гПа)

Po
(гПа)
Тmin
(С)
Tmax
(С)
R
(мм)
SD
(см)
00:52 27.09 ЮВ  16 км    10/10 м
[средняя верхняя] 
+13.0  +6.0  62  +12  +12    1019.4  983.6  +11.7  +18.3     
01:52 27.09 Ю  16 км    10/10 м
[средняя верхняя] 
+13.9  +5.0  55  +12  +12    1019.1  983.6  +11.7  +18.3     
02:52 27.09 Ю  16 км    10/10 м
[средняя верхняя] 
+12.0  +6.0  67  +10  +10    1019.3  983.6  +11.7  +18.3     
03:52 27.09 Ю  16 км    10/10 м
[средняя верхняя] 
+13.0  +6.0  62  +11  +11    1018.6  983.2  +11.7  +18.3     
04:52 27.09 Ю  16 км    10/10 м
[средняя верхняя] 
+13.9  +3.9  51  +12  +12    1017.8  982.2  +11.7  +18.3     
05:52 27.09 Ю  16 км    10/10 м
[средняя верхняя] 
+14.0  +4.0  51  +12  +12    1017.1  981.9  +11.7  +14.4     
06:52 27.09 Ю  16 км    10/10 м
[средняя верхняя] 
+14.0  +3.0  47  +12  +12    1016.9  981.6  +11.7  +14.4     
07:52 27.09 Ю  16 км    10/10 м
[средняя верхняя] 
+13.3  +3.9  53  +11  +11    1016.3  980.9  +11.7  +14.4     
08:52 27.09 Ю  16 км  дождь, дымка  10/10 м
[средняя верхняя] 
+12.0  +4.0  58  +10  +10    1015.9  980.6  +11.7  +14.4     
09:52 27.09 Ю  16 км    10/10 м
[средняя верхняя] 
+12.0  +5.0  62  +9  +9    1015.5  980.3  +11.7  +14.4     
10:52 27.09 Ю  16 км    10/10 м
[средняя верхняя] 
+12.2  +5.0  61  +10  +10    1015.7  980.3  +11.7  +14.4     
11:52 27.09 Ю  16 км  мгла  10/10 м
[средняя верхняя] 
+12.0  +6.0  67  +10  +10    1015.7  980.3  +11.7  +22.8     
13:52 27.09 Ю  16 км  дымка  10/10 м
[средняя верхняя] 
+15.6  +6.7  55  +15  +15    1015.3  980.0  +11.7  +22.8     
14:52 27.09 ЮЗ  16 км  слабая морось, дымка  10/10 м
[средняя верхняя] 
+18.0  +7.0  49  +17  +17    1014.9  979.6  +11.7  +22.8     
15:52 27.09 ЮЗ  16 км  слабая морось, дымка  10/10 м
[средняя верхняя] 
+21.0  +7.0  40  +22  +22  комфорт  1014.1  979.0  +11.7  +22.8     
16:52 27.09 ЮЗ  16 км  слабая морось, дымка  10/10 м
[средняя верхняя] 
+22.2  +7.8  40  +23  +23  комфорт  1013.4  978.3  +11.7  +22.8     
17:52 27.09 СЗ  16 км  дымка  10/10 м
[средняя верхняя] 
+23.0  +8.0  38  +24  +24  комфорт  1012.9  978.0  +20.0  +25.0     
18:52 27.09 З  16 км  дымка  10/10 м
[средняя верхняя] 
+24.0  +7.0  34  +24  +24  комфорт  1012.2  977.3  +20.0  +25.0     
19:52 27.09 СЗ  16 км  дымка  10/10 м
[средняя верхняя] 
+23.9  +6.7  33  +24  +24  комфорт  1012.0  977.0  +20.0  +25.0     
20:52 27.09 С  16 км    10/10 м
[средняя верхняя] 
+24.0  +7.0  34  +24  +24  комфорт  1011.8  976.7  +20.0  +25.0     
21:52 27.09 СВ  16 км    10/10 м
[средняя верхняя] 
+22.0  +6.0  35  +23  +23  комфорт  1012.4  977.3  +20.0  +25.0     
22:52 27.09 С  16 км    10/10 м
[средняя верхняя] 
+20.0  +6.7  42  +20  +20    1013.0  977.7  +20.0  +25.0     
23:52 27.09 С  7
{11} 
16 км    10/10 м
[средняя верхняя] 
+18.0  +7.0  49  +17  +17    1014.1  978.6  +15.0  +20.0     
00:52 28.09 С  16 км    10/10 м
[средняя верхняя] 
+17.0  +8.0  55  +16  +16    1015.3  980.0  +15.0  +20.0     
01:52 28.09 С  16 км    10/10 м
[средняя верхняя] 
+15.6  +8.9  64  +15  +15    1016.0  980.6  +15.0  +20.0     
02:52 28.09 С  16 км    10/10 м
[средняя верхняя] 
+16.0  +9.0  63  +15  +15    1016.4  980.9  +15.0  +20.0     
03:52 28.09 С  16 км    10/10 м
[средняя верхняя] 
+15.0  +9.0  67  +14  +14    1016.9  981.6  +15.0  +20.0     
04:52 28.09 С  16 км    10/10 м
[средняя верхняя] 
+15.0  +8.9  67  +14  +14    1017.5  982.2  +15.0  +20.0     
05:52 28.09 С  16 км    10/10 м
[средняя верхняя] 
+14.0  +9.0  72  +12  +12    1018.3  982.9  +9.4  +15.0     
06:52 28.09 С  16 км    10/10 м
[средняя верхняя] 
+13.0  +7.0  67  +11  +11    1019.0  983.9  +9.4  +15.0     
07:52 28.09 С  5
{10} 
16 км    10/10 м
[средняя верхняя] 
+12.2  +7.2  71  +10  +10    1019.2  983.9  +9.4  +15.0     
08:52 28.09 С  16 км    10/10 м
[средняя верхняя] 
+12.0  +7.0  71  +9  +9    1020.1  984.9  +9.4  +15.0     
09:52 28.09 С  16 км    10/10 м
[средняя верхняя] 
+11.0  +7.0  76  +7  +7    1021.1  985.5  +9.4  +15.0     
10:52 28.09 С  13 км    10/10 м
[средняя верхняя] 
+9.4  +5.6  77  +6  +6    1022.6  986.8  +9.4  +15.0     
11:52 28.09 С  16 км    10/10 м
[средняя верхняя] 
+9.0  +6.0  81  +6  +6    1023.5  987.8  +8.9  +9.4  0.3   
12:52 28.09 С  16 км    10/10 м
[средняя верхняя] 
+9.0  +6.0  81  +5  +5    1023.9  988.1  +8.9  +9.4  0.3   
13:52 28.09 С  16 км    10/10 м
[средняя верхняя] 
+9.4  +5.0  74  +7  +7    1025.4  989.4  +8.9  +9.4  0.3   
14:52 28.09 С  16 км    10/10 м
[средняя верхняя] 
+9.0  +6.0  81  +6  +6    1026.7  990.7  +8.9  +9.4  0.5   
15:52 28.09 С  16 км    10/10 м
[средняя верхняя] 
+9.0  +5.0  76  +6  +6    1027.4  991.4  +8.9  +9.4  0.5   
16:52 28.09 С  16 км    10/10 м
[средняя верхняя] 
+8.9  +4.4  73  +7  +7    1027.5  991.4  +8.9  +9.4  0.5   
17:52 28.09 ЮВ  16 км    10/10 м
[средняя верхняя] 
+9.0  +4.0  71  +8  +8    1027.1  991.1  +8.3  +10.6  0.8   
18:52 28.09 штиль  16 км    10/10 м
[средняя верхняя] 
+9.0  +4.0  71  +8  +8    1027.0  990.7  +8.3  +10.6  0.8   
19:52 28.09 штиль  16 км    10/10 м
[средняя верхняя] 
+9.4  +4.4  71  +9  +9    1027.1  990.7  +8.3  +10.6  0.8   
20:52 28.09 СЗ  16 км    10/10 м
[средняя верхняя] 
+10.0  +6.0  76  +9  +9    1026.5  990.4  +8.3  +10.6  0.8   
21:52 28.09 СЗ  16 км    10/10 м
[средняя верхняя] 
+10.0  +5.0  71  +9  +9    1026.5  990.4  +8.3  +10.6  0.8   
22:52 28.09 З  16 км    10/10 м
[средняя верхняя] 
+10.0  +5.6  74  +9  +9    1026.6  990.4  +8.3  +10.6  0.8   
23:52 28.09 штиль  16 км    10/10 м
[средняя верхняя] 
+9.0  +6.0  81  +8  +8    1027.0  990.7  +7.8  +10.0     
00:52 29.09 штиль  16 км    10/10 м
[средняя верхняя] 
+9.0  +6.0  81  +8  +8    1027.2  991.1  +7.8  +10.0     

 

Местоположение метеостанции Eppley Airfield: широта 41.3103 долгота -95.8992 высота над уровнем моря 299 м.

В архиве по умолчанию представлена погода в Омахе за последние 1-2 суток. Обновление информации о фактической погоде в базе происходит ежечасно! Архивные данные за месяц целиком и за предыдущие месяцы Вы можете получить, выбрав интересующий диапазон дат из раскрывающегося списка и нажав кнопку "Ввод!".

Внимание! Архив погоды МЕТАР в базе сайта в настоящее время начинается c 1 января 2013 г. Нет смысла пытаться выбрать более раннюю дату.

Внимание! Время в таблицах - всемирное. Для получения местного времени необходимо прибавить поправку, которая в Омахе равна -6 ч.

Ветер - указаны скорость ветра в м/с и направление, откуда дует ветер: С - северный, СВ - северо-восточный, В - восточный, ЮВ - юго-восточный, Ю - южный, ЮЗ - юго-западный, З - западный, СЗ - северо-западный.
Видимость - горизонтальная дальность видимости в метрах или километрах. При видимости от 1 до 10 км при отсутствии осадков обычно наблюдается дымка, при ухудшении видимости до 1 км и менее - туман. В сухую погоду видимость может ухудшаться дымом, пылью или мглою.
Атмосферные явления - указаны явления, наблюдавшиеся в указанный момент времени.
Облачность - указаны через наклонную черту верхняя и нижняя облачность в баллах и высота нижней границы облаков в метрах. Внимание: облачность, как и прочие метеорологические величины в США измеряются автоматическими метеостанциями. Указанные значения в баллах носят условный характер и показывают процент времени, в течение которого, в среднем, лазерный луч высотомера отражался от облаков обратно.
T - Температура воздуха - температура, измеренная на высоте 2 м над землей.
Td - Температура точки росы - температура, при понижении до которой содержащийся в воздухе водяной пар достигнет насыщения.
f - Относительная влажность воздуха - влажноcть воздуха, измеренная на высоте 2 м над землей.
Te - Эффективная температура - температура, которую ощущает одетый по сезону человек в тени. Характеристика душности погоды. При расчете учитывается влияние влажности воздуха и скорости ветра на теплоощущения человека.
Tes - Эффективная температура на солнце - температура, которую ощущает человек, с поправкой на солнечный нагрев. Характеристика знойности погоды. Зависит от высоты солнца над горизонтом, облачности и скорости ветра. Ночью, в пасмурную погоду, а также при ветре 12 м/с и более поправка равна нулю.
P - Атмосферное давление - приведенное к уровню моря атмосферное давление.
Po - Атмосферное давление - измеренное на уровне метеостанции атмосферное давление.
Tmin - Минимальная температура - минимум температуры воздуха на высоте 2 м над землей.
Tmax - Максимальная температура - максимум температуры воздуха на высоте 2 м над землей.
R - Количество осадков - Количество выпавших осадков за 3 или 6 часов, мм.
SD - Снежный покров - Высота снежного покрова, см.